[ hide orbit diagram ]
For accurate long-term ephemerides, please instead use our Horizons system.This orbit viewer was implemented using two-body methods, and hence should not be used for determining accurate long-term trajectories (over several years or decades) or planetary encounter circumstances.
Orbital Elements at Epoch 2459200.5 (2020-Dec-17.0) TDB
Reference: JPL 14 (heliocentric ecliptic J2000)
Element | Value | Uncertainty (1-sigma) | Units |
e | .1847380227375424 | 5.4704e-08 | |
a | 2.290313304402015 | 1.0298e-08 | au |
q | 1.867205353097299 | 1.2413e-07 | au |
i | 6.781395582933706 | 4.9873e-06 | deg |
node | 58.85190518861118 | 4.4415e-05 | deg |
peri | 313.2457099441597 | 4.5566e-05 | deg |
M | 230.7290541643626 | 1.1651e-05 | deg |
tp | 2459655.110221669605 (2022-Mar-16.61022167) | 4.214e-05 | TDB |
period | 1266.020595294044 3.47 | 8.5383e-06 2.338e-08 | d yr |
n | .2843555636757923 | 1.9177e-09 | deg/d |
Q | 2.71342125570673 | 1.22e-08 | au |
|
| | Orbit Determination Parameters
Additional Information
|
[ show covariance matrix ]
Physical Parameter Table
Parameter |
Symbol |
Value |
Units |
Sigma |
Reference |
Notes |
absolute magnitude |
H |
16.24 |
|
n/a |
E2021B10 |
|
diameter |
diameter |
2.443 |
km |
0.795 |
urn:nasa:pds:neowise_diameters_albedos::2.0[mainbelt] (http://adsabs.harvard.edu/abs/2011ApJ...741...68M) |
|
geometric albedo |
albedo |
0.118 |
|
0.088 |
urn:nasa:pds:neowise_diameters_albedos::2.0[mainbelt] (http://adsabs.harvard.edu/abs/2011ApJ...741...68M) |
|
|
90852 (1996 GS4) Discovered 1996-Apr-11 by Spacewatch at Kitt Peak |
Reference: 20041028/Numbers.arc | Last Updated: 2004-10-29 |
|
|